Time,TemperatureF,DewpointF,PressureIn,WindDirection,WindDirectionDegrees,WindSpeedMPH,WindSpeedGustMPH,Humidity,HourlyPrecipIn,Conditions,Clouds,dailyrainin,SoftwareType,DateUTC
2013-03-28 00:00:00,23.2,18.0,30.31,WSW,248,0.0,0.0,80,0.00,,SKC,0.00,VWS V14.01,2013-03-28 05:00:00,
2013-03-28 00:01:00,23.1,18.0,30.31,WSW,244,0.0,-999.0,80,-99.99,,,0.00,weatherlink.com 1.10,2013-03-28 05:01:00,
2013-03-28 00:16:00,22.5,17.0,30.32,WSW,244,0.0,-999.0,79,-99.99,,,0.00,weatherlink.com 1.10,2013-03-28 05:16:00,
2013-03-28 00:30:00,22.2,17.0,30.32,WSW,248,0.0,0.0,80,0.00,,SKC,0.00,VWS V14.01,2013-03-28 05:30:00,
2013-03-28 00:31:00,22.2,17.0,30.32,WSW,244,0.0,-999.0,80,-99.99,,,0.00,weatherlink.com 1.10,2013-03-28 05:31:00,
2013-03-28 00:46:00,22.2,18.0,30.33,WSW,244,0.0,-999.0,83,-99.99,,,0.00,weatherlink.com 1.10,2013-03-28 05:46:00,
2013-03-28 01:00:00,22.7,18.0,30.33,WSW,248,0.0,1.0,82,0.00,,SKC,0.00,VWS V14.01,2013-03-28 06:00:00,
2013-03-28 01:01:00,22.7,18.0,30.33,WSW,244,0.0,-999.0,81,-99.99,,,0.00,weatherlink.com 1.10,2013-03-28 06:01:00,
2013-03-28 01:17:00,22.5,18.0,30.33,WSW,244,0.0,-999.0,81,-99.99,,,0.00,weatherlink.com 1.10,2013-03-28 06:17:00,
2013-03-28 01:30:00,22.1,17.5,30.33,WSW,248,0.0,0.0,82,0.00,,SKC,0.00,VWS V14.01,2013-03-28 06:30:00,
2013-03-28 01:32:00,22.0,17.0,30.33,WSW,244,0.0,-999.0,82,-99.99,,,0.00,weatherlink.com 1.10,2013-03-28 06:32:00,
2013-03-28 01:47:00,21.7,17.0,30.33,WSW,244,0.0,-999.0,82,-99.99,,,0.00,weatherlink.com 1.10,2013-03-28 06:47:00,
2013-03-28 02:00:00,21.6,17.0,30.33,WSW,248,0.0,0.0,82,0.00,,SKC,0.00,VWS V14.01,2013-03-28 07:00:00,
2013-03-28 02:02:00,21.5,17.0,30.33,WSW,244,0.0,-999.0,82,-99.99,,,0.00,weatherlink.com 1.10,2013-03-28 07:02:00,
2013-03-28 02:17:00,21.1,16.0,30.33,WSW,244,0.0,-999.0,82,-99.99,,,0.00,weatherlink.com 1.10,2013-03-28 07:17:00,
2013-03-28 02:30:00,20.6,16.0,30.33,WSW,248,0.0,0.0,82,0.00,,SKC,0.00,VWS V14.01,2013-03-28 07:30:00,
2013-03-28 02:32:00,20.4,16.0,30.33,WSW,244,0.0,-999.0,82,-99.99,,,0.00,weatherlink.com 1.10,2013-03-28 07:32:00,
2013-03-28 02:47:00,19.9,16.0,30.33,WSW,244,0.0,-999.0,84,-99.99,,,0.00,weatherlink.com 1.10,2013-03-28 07:47:00,
2013-03-28 03:00:00,19.7,15.9,30.33,WSW,248,0.0,0.0,85,0.00,,SKC,0.00,VWS V14.01,2013-03-28 08:00:00,
2013-03-28 03:02:00,19.6,16.0,30.33,WSW,244,0.0,-999.0,86,-99.99,,,0.00,weatherlink.com 1.10,2013-03-28 08:02:00,
2013-03-28 03:17:00,19.2,16.0,30.32,WSW,244,0.0,-999.0,87,-99.99,,,0.00,weatherlink.com 1.10,2013-03-28 08:17:00,
2013-03-28 03:30:00,18.9,15.7,30.33,WSW,248,0.0,0.0,87,0.00,,SKC,0.00,VWS V14.01,2013-03-28 08:30:00,
2013-03-28 03:32:00,18.8,16.0,30.32,WSW,244,0.0,-999.0,87,-99.99,,,0.00,weatherlink.com 1.10,2013-03-28 08:32:00,
2013-03-28 03:47:00,18.6,16.0,30.32,WSW,244,0.0,-999.0,88,-99.99,,,0.00,weatherlink.com 1.10,2013-03-28 08:47:00,
2013-03-28 04:00:00,18.6,15.9,30.32,WSW,248,0.0,0.0,89,0.00,,SKC,0.00,VWS V14.01,2013-03-28 09:00:00,
2013-03-28 04:02:00,18.5,16.0,30.32,WSW,244,0.0,-999.0,89,-99.99,,,0.00,weatherlink.com 1.10,2013-03-28 09:02:00,
2013-03-28 04:17:00,18.2,16.0,30.32,WSW,244,0.0,-999.0,89,-99.99,,,0.00,weatherlink.com 1.10,2013-03-28 09:17:00,
2013-03-28 04:30:00,18.1,15.4,30.32,WSW,248,0.0,0.0,89,0.00,,SKC,0.00,VWS V14.01,2013-03-28 09:30:00,
2013-03-28 04:32:00,18.1,15.0,30.32,WSW,244,0.0,-999.0,89,-99.99,,,0.00,weatherlink.com 1.10,2013-03-28 09:32:00,
2013-03-28 04:47:00,17.9,15.0,30.32,WSW,244,0.0,-999.0,89,-99.99,,,0.00,weatherlink.com 1.10,2013-03-28 09:47:00,
2013-03-28 05:00:00,17.5,14.8,30.32,WSW,248,0.0,0.0,89,0.00,,SKC,0.00,VWS V14.01,2013-03-28 10:00:00,
2013-03-28 05:02:00,17.5,15.0,30.32,WSW,244,0.0,-999.0,90,-99.99,,,0.00,weatherlink.com 1.10,2013-03-28 10:02:00,
2013-03-28 05:17:00,17.0,14.0,30.33,WSW,244,0.0,-999.0,89,-99.99,,,0.00,weatherlink.com 1.10,2013-03-28 10:17:00,
2013-03-28 05:30:00,16.6,13.9,30.33,WSW,248,0.0,0.0,89,0.00,,SKC,0.00,VWS V14.01,2013-03-28 10:30:00,
2013-03-28 05:32:00,16.5,14.0,30.33,WSW,244,0.0,-999.0,89,-99.99,,,0.00,weatherlink.com 1.10,2013-03-28 10:32:00,
2013-03-28 05:47:00,16.4,14.0,30.33,WSW,244,0.0,-999.0,91,-99.99,,,0.00,weatherlink.com 1.10,2013-03-28 10:47:00,
2013-03-28 06:00:00,16.3,13.9,30.33,WSW,248,0.0,0.0,90,0.00,,SKC,0.00,VWS V14.01,2013-03-28 11:00:00,
2013-03-28 06:02:00,16.2,14.0,30.33,WSW,244,0.0,-999.0,90,-99.99,,,0.00,weatherlink.com 1.10,2013-03-28 11:02:00,
2013-03-28 06:17:00,15.8,13.0,30.33,WSW,244,0.0,-999.0,90,-99.99,,,0.00,weatherlink.com 1.10,2013-03-28 11:17:00,
2013-03-28 06:30:00,15.8,13.6,30.33,WSW,248,0.0,0.0,91,0.00,,SKC,0.00,VWS V14.01,2013-03-28 11:30:00,
2013-03-28 06:32:00,15.9,14.0,30.33,WSW,244,0.0,-999.0,91,-99.99,,,0.00,weatherlink.com 1.10,2013-03-28 11:32:00,
2013-03-28 06:47:00,15.7,13.0,30.33,WSW,244,0.0,-999.0,90,-99.99,,,0.00,weatherlink.com 1.10,2013-03-28 11:47:00,
2013-03-28 07:00:00,15.4,13.0,30.33,WSW,248,0.0,0.0,90,0.00,,SKC,0.00,VWS V14.01,2013-03-28 12:00:00,
2013-03-28 07:02:00,15.3,13.0,30.33,WSW,244,0.0,-999.0,90,-99.99,,,0.00,weatherlink.com 1.10,2013-03-28 12:02:00,
2013-03-28 07:30:00,15.3,13.1,30.34,WSW,248,0.0,0.0,91,0.00,,SKC,0.00,VWS V14.01,2013-03-28 12:30:00,
2013-03-28 07:32:00,15.3,13.0,30.34,WSW,244,0.0,-999.0,91,-99.99,,,0.00,weatherlink.com 1.10,2013-03-28 12:32:00,
2013-03-28 07:47:00,16.5,15.0,30.33,WSW,244,0.0,-999.0,93,-99.99,,,0.00,weatherlink.com 1.10,2013-03-28 12:47:00,
2013-03-28 08:00:00,18.4,16.7,30.34,WSW,248,0.0,0.0,93,0.00,,SKC,0.00,VWS V14.01,2013-03-28 13:00:00,
2013-03-28 08:02:00,19.0,17.0,30.34,WSW,244,0.0,-999.0,92,-99.99,,,0.00,weatherlink.com 1.10,2013-03-28 13:02:00,
2013-03-28 08:17:00,22.0,19.0,30.34,WSW,244,0.0,-999.0,88,-99.99,,,0.00,weatherlink.com 1.10,2013-03-28 13:17:00,
2013-03-28 08:30:00,24.2,19.8,30.34,WSW,248,0.0,0.0,83,0.00,,SKC,0.00,VWS V14.01,2013-03-28 13:30:00,
2013-03-28 08:32:00,24.9,20.0,30.34,WSW,244,0.0,-999.0,82,-99.99,,,0.00,weatherlink.com 1.10,2013-03-28 13:32:00,
2013-03-28 08:47:00,27.8,21.0,30.34,WSW,244,0.0,-999.0,74,-99.99,,,0.00,weatherlink.com 1.10,2013-03-28 13:47:00,
2013-03-28 09:00:00,29.6,20.7,30.33,WSW,248,0.0,2.0,69,0.00,,SKC,0.00,VWS V14.01,2013-03-28 14:00:00,
2013-03-28 09:02:00,29.9,20.0,30.34,ESE,110,2.0,-999.0,68,-99.99,,,0.00,weatherlink.com 1.10,2013-03-28 14:02:00,
2013-03-28 09:17:00,31.4,20.0,30.34,ESE,108,1.0,-999.0,64,-99.99,,,0.00,weatherlink.com 1.10,2013-03-28 14:17:00,
2013-03-28 09:30:00,32.8,21.2,30.34,ESE,112,1.0,5.0,62,0.00,,SKC,0.00,VWS V14.01,2013-03-28 14:30:00,
2013-03-28 09:33:00,33.3,21.0,30.34,ESE,107,0.0,-999.0,62,-99.99,,,0.00,weatherlink.com 1.10,2013-03-28 14:33:00,
2013-03-28 09:47:00,34.8,21.0,30.34,ESE,106,0.0,-999.0,57,-99.99,,,0.00,weatherlink.com 1.10,2013-03-28 14:47:00,
2013-03-28 10:00:00,35.9,21.3,30.34,ESE,112,1.0,5.0,55,0.00,,SKC,0.00,VWS V14.01,2013-03-28 15:00:00,
2013-03-28 10:03:00,36.2,21.0,30.34,East,99,2.0,-999.0,54,-99.99,,,0.00,weatherlink.com 1.10,2013-03-28 15:03:00,
2013-03-28 10:18:00,37.0,21.0,30.34,East,88,2.0,-999.0,52,-99.99,,,0.00,weatherlink.com 1.10,2013-03-28 15:18:00,
2013-03-28 10:30:00,37.7,21.2,30.34,East,90,2.0,7.0,51,0.00,,SKC,0.00,VWS V14.01,2013-03-28 15:30:00,
2013-03-28 10:33:00,37.8,21.0,30.34,East,90,1.0,-999.0,51,-99.99,,,0.00,weatherlink.com 1.10,2013-03-28 15:33:00,
2013-03-28 10:48:00,38.4,20.0,30.34,East,92,0.0,-999.0,48,-99.99,,,0.00,weatherlink.com 1.10,2013-03-28 15:48:00,
2013-03-28 11:00:00,38.9,20.9,30.34,East,90,1.0,6.0,48,0.00,,SKC,0.00,VWS V14.01,2013-03-28 16:00:00,
2013-03-28 11:03:00,39.0,21.0,30.34,East,89,1.0,-999.0,49,-99.99,,,0.00,weatherlink.com 1.10,2013-03-28 16:03:00,
2013-03-28 11:18:00,39.6,20.0,30.34,ESE,109,0.0,-999.0,46,-99.99,,,0.00,weatherlink.com 1.10,2013-03-28 16:18:00,
2013-03-28 11:30:00,39.8,20.2,30.34,East,90,2.0,7.0,45,0.00,,SKC,0.00,VWS V14.01,2013-03-28 16:30:00,
2013-03-28 11:33:00,40.0,20.0,30.33,ESE,118,0.0,-999.0,45,-99.99,,,0.00,weatherlink.com 1.10,2013-03-28 16:33:00,
2013-03-28 11:48:00,40.6,21.0,30.34,East,98,0.0,-999.0,45,-99.99,,,0.00,weatherlink.com 1.10,2013-03-28 16:48:00,
2013-03-28 12:00:00,41.0,20.2,30.34,ESE,112,2.0,8.0,43,0.00,,SKC,0.00,VWS V14.01,2013-03-28 17:00:00,
2013-03-28 12:03:00,40.8,21.0,30.33,East,84,2.0,-999.0,45,-99.99,,,0.00,weatherlink.com 1.10,2013-03-28 17:03:00,
2013-03-28 12:18:00,40.7,21.0,30.33,SE,126,0.0,-999.0,46,-99.99,,,0.00,weatherlink.com 1.10,2013-03-28 17:18:00,
2013-03-28 12:30:00,41.5,21.8,30.33,East,90,2.0,11.0,45,0.00,,SKC,0.00,VWS V14.01,2013-03-28 17:30:00,
2013-03-28 12:33:00,41.9,21.0,30.33,ESE,119,0.0,-999.0,43,-99.99,,,0.00,weatherlink.com 1.10,2013-03-28 17:33:00,
2013-03-28 12:48:00,42.3,21.0,30.33,ESE,115,5.0,-999.0,43,-99.99,,,0.00,weatherlink.com 1.10,2013-03-28 17:48:00,
2013-03-28 13:00:00,42.2,20.8,30.33,ESE,112,2.0,11.0,42,0.00,,SKC,0.00,VWS V14.01,2013-03-28 18:00:00,
2013-03-28 13:03:00,42.0,20.0,30.32,SE,139,1.0,-999.0,42,-99.99,,,0.00,weatherlink.com 1.10,2013-03-28 18:03:00,
2013-03-28 13:18:00,42.5,21.0,30.32,ESE,107,0.0,-999.0,42,-99.99,,,0.00,weatherlink.com 1.10,2013-03-28 18:18:00,
2013-03-28 13:30:00,42.3,20.9,30.32,ESE,112,2.0,9.0,42,0.00,,SKC,0.00,VWS V14.01,2013-03-28 18:30:00,
2013-03-28 13:33:00,42.5,21.0,30.32,SE,132,1.0,-999.0,42,-99.99,,,0.00,weatherlink.com 1.10,2013-03-28 18:33:00,
2013-03-28 13:48:00,43.4,21.0,30.31,ESE,115,0.0,-999.0,41,-99.99,,,0.00,weatherlink.com 1.10,2013-03-28 18:48:00,
2013-03-28 14:00:00,43.6,20.9,30.31,SE,135,1.0,8.0,40,0.00,,SKC,0.00,VWS V14.01,2013-03-28 19:00:00,
2013-03-28 14:03:00,43.8,20.0,30.31,SE,129,6.0,-999.0,39,-99.99,,,0.00,weatherlink.com 1.10,2013-03-28 19:03:00,
2013-03-28 14:18:00,44.1,22.0,30.30,SE,141,6.0,-999.0,41,-99.99,,,0.00,weatherlink.com 1.10,2013-03-28 19:18:00,
2013-03-28 14:30:00,43.7,20.4,30.30,ESE,112,2.0,9.0,39,0.00,,SKC,0.00,VWS V14.01,2013-03-28 19:30:00,
2013-03-28 14:33:00,43.7,21.0,30.30,West,279,0.0,-999.0,40,-99.99,,,0.00,weatherlink.com 1.10,2013-03-28 19:33:00,
2013-03-28 14:48:00,44.0,22.0,30.30,SE,130,0.0,-999.0,41,-99.99,,,0.00,weatherlink.com 1.10,2013-03-28 19:48:00,
2013-03-28 15:00:00,44.5,21.1,30.29,ESE,112,1.0,7.0,39,0.00,,SKC,0.00,VWS V14.01,2013-03-28 20:00:00,
2013-03-28 15:03:00,44.0,21.0,30.29,SE,126,0.0,-999.0,40,-99.99,,,0.00,weatherlink.com 1.10,2013-03-28 20:03:00,
2013-03-28 15:18:00,43.7,21.0,30.29,ENE,78,1.0,-999.0,41,-99.99,,,0.00,weatherlink.com 1.10,2013-03-28 20:18:00,
2013-03-28 15:30:00,43.7,21.6,30.29,ESE,112,2.0,9.0,41,0.00,,SKC,0.00,VWS V14.01,2013-03-28 20:30:00,
2013-03-28 15:33:00,44.1,20.0,30.29,SSW,199,0.0,-999.0,39,-99.99,,,0.00,weatherlink.com 1.10,2013-03-28 20:33:00,
2013-03-28 15:48:00,44.6,21.0,30.28,NE,36,0.0,-999.0,39,-99.99,,,0.00,weatherlink.com 1.10,2013-03-28 20:48:00,
2013-03-28 16:00:00,44.9,20.2,30.28,ESE,112,1.0,8.0,37,0.00,,SKC,0.00,VWS V14.01,2013-03-28 21:00:00,
2013-03-28 16:03:00,44.6,20.0,30.28,ESE,117,1.0,-999.0,37,-99.99,,,0.00,weatherlink.com 1.10,2013-03-28 21:03:00,
2013-03-28 16:18:00,44.8,20.0,30.28,SE,139,0.0,-999.0,37,-99.99,,,0.00,weatherlink.com 1.10,2013-03-28 21:18:00,
2013-03-28 16:30:00,44.2,19.6,30.28,ESE,112,2.0,7.0,37,0.00,,SKC,0.00,VWS V14.01,2013-03-28 21:30:00,
2013-03-28 16:33:00,44.1,20.0,30.27,ESE,103,1.0,-999.0,38,-99.99,,,0.00,weatherlink.com 1.10,2013-03-28 21:33:00,
2013-03-28 16:48:00,44.5,21.0,30.27,SE,131,0.0,-999.0,39,-99.99,,,0.00,weatherlink.com 1.10,2013-03-28 21:48:00,
2013-03-28 17:00:00,44.2,20.8,30.27,ESE,112,2.0,7.0,39,0.00,,SKC,0.00,VWS V14.01,2013-03-28 22:00:00,
2013-03-28 17:03:00,44.1,20.0,30.27,East,101,1.0,-999.0,39,-99.99,,,0.00,weatherlink.com 1.10,2013-03-28 22:03:00,
2013-03-28 17:18:00,44.5,20.0,30.27,ESE,118,0.0,-999.0,38,-99.99,,,0.00,weatherlink.com 1.10,2013-03-28 22:18:00,
2013-03-28 17:30:00,44.4,21.0,30.27,East,90,1.0,6.0,39,0.00,,SKC,0.00,VWS V14.01,2013-03-28 22:30:00,
2013-03-28 17:33:00,44.6,20.0,30.27,SSE,156,0.0,-999.0,38,-99.99,,,0.00,weatherlink.com 1.10,2013-03-28 22:33:00,
2013-03-28 17:48:00,44.4,20.0,30.27,East,101,0.0,-999.0,38,-99.99,,,0.00,weatherlink.com 1.10,2013-03-28 22:48:00,
2013-03-28 18:00:00,45.3,21.2,30.27,East,90,1.0,5.0,38,0.00,,SKC,0.00,VWS V14.01,2013-03-28 23:00:00,
2013-03-28 18:03:00,45.4,20.0,30.27,ESE,103,0.0,-999.0,36,-99.99,,,0.00,weatherlink.com 1.10,2013-03-28 23:03:00,
2013-03-28 18:18:00,44.9,21.0,30.27,ESE,103,1.0,-999.0,39,-99.99,,,0.00,weatherlink.com 1.10,2013-03-28 23:18:00,
2013-03-28 18:30:00,44.1,20.7,30.27,East,90,0.0,4.0,39,0.00,,SKC,0.00,VWS V14.01,2013-03-28 23:30:00,
2013-03-28 18:33:00,43.8,21.0,30.27,East,98,1.0,-999.0,41,-99.99,,,0.00,weatherlink.com 1.10,2013-03-28 23:33:00,
2013-03-28 18:48:00,43.2,21.0,30.27,East,98,0.0,-999.0,41,-99.99,,,0.00,weatherlink.com 1.10,2013-03-28 23:48:00,
2013-03-28 19:00:00,42.6,21.1,30.27,East,90,0.0,4.0,42,0.00,,SKC,0.00,VWS V14.01,2013-03-29 00:00:00,
2013-03-28 19:03:00,42.4,21.0,30.27,East,98,0.0,-999.0,42,-99.99,,,0.00,weatherlink.com 1.10,2013-03-29 00:03:00,
2013-03-28 19:18:00,41.6,20.0,30.27,East,98,0.0,-999.0,43,-99.99,,,0.00,weatherlink.com 1.10,2013-03-29 00:18:00,
2013-03-28 19:30:00,40.1,22.0,30.27,East,90,0.0,2.0,48,0.00,,SKC,0.00,VWS V14.01,2013-03-29 00:30:00,
2013-03-28 19:33:00,39.4,22.0,30.27,East,98,0.0,-999.0,50,-99.99,,,0.00,weatherlink.com 1.10,2013-03-29 00:33:00,
2013-03-28 19:48:00,37.6,21.0,30.27,East,98,0.0,-999.0,51,-99.99,,,0.00,weatherlink.com 1.10,2013-03-29 00:48:00,
2013-03-28 20:00:00,36.7,21.2,30.27,East,90,0.0,1.0,53,0.00,,SKC,0.00,VWS V14.01,2013-03-29 01:00:00,
2013-03-28 20:18:00,35.7,21.0,30.28,East,98,0.0,-999.0,55,-99.99,,,0.00,weatherlink.com 1.10,2013-03-29 01:18:00,
2013-03-28 20:30:00,35.7,21.1,30.28,East,90,0.0,1.0,55,0.00,,SKC,0.00,VWS V14.01,2013-03-29 01:30:00,
2013-03-28 20:33:00,36.1,21.0,30.28,East,98,0.0,-999.0,54,-99.99,,,0.00,weatherlink.com 1.10,2013-03-29 01:33:00,
2013-03-28 20:49:00,36.5,21.0,30.28,East,98,0.0,-999.0,53,-99.99,,,0.00,weatherlink.com 1.10,2013-03-29 01:49:00,
2013-03-28 21:00:00,36.3,21.3,30.28,East,90,0.0,2.0,54,0.00,,SKC,0.00,VWS V14.01,2013-03-29 02:00:00,
2013-03-28 21:04:00,36.2,21.0,30.28,East,98,0.0,-999.0,54,-99.99,,,0.00,weatherlink.com 1.10,2013-03-29 02:04:00,
2013-03-28 21:19:00,36.0,21.0,30.29,East,98,0.0,-999.0,54,-99.99,,,0.00,weatherlink.com 1.10,2013-03-29 02:19:00,
2013-03-28 21:30:00,35.3,20.8,30.29,East,90,0.0,1.0,55,0.00,,SKC,0.00,VWS V14.01,2013-03-29 02:30:00,
2013-03-28 21:34:00,35.0,21.0,30.29,East,98,0.0,-999.0,56,-99.99,,,0.00,weatherlink.com 1.10,2013-03-29 02:34:00,
2013-03-28 21:49:00,35.0,21.0,30.28,East,98,0.0,-999.0,56,-99.99,,,0.00,weatherlink.com 1.10,2013-03-29 02:49:00,
2013-03-28 22:00:00,35.1,21.0,30.29,East,90,0.0,1.0,56,0.00,,SKC,0.00,VWS V14.01,2013-03-29 03:00:00,
2013-03-28 22:04:00,35.0,21.0,30.29,East,98,0.0,-999.0,56,-99.99,,,0.00,weatherlink.com 1.10,2013-03-29 03:04:00,
2013-03-28 22:19:00,34.3,20.0,30.28,East,98,0.0,-999.0,57,-99.99,,,0.00,weatherlink.com 1.10,2013-03-29 03:19:00,
2013-03-28 22:30:00,34.2,21.0,30.28,East,90,0.0,4.0,58,0.00,,SKC,0.00,VWS V14.01,2013-03-29 03:30:00,
2013-03-28 22:34:00,34.2,21.0,30.28,East,98,0.0,-999.0,58,-99.99,,,0.00,weatherlink.com 1.10,2013-03-29 03:34:00,
2013-03-28 22:49:00,34.0,21.0,30.28,East,98,0.0,-999.0,59,-99.99,,,0.00,weatherlink.com 1.10,2013-03-29 03:49:00,
2013-03-28 23:00:00,33.2,20.8,30.28,East,90,0.0,2.0,60,0.00,,SKC,0.00,VWS V14.01,2013-03-29 04:00:00,
2013-03-28 23:04:00,32.8,21.0,30.28,East,98,0.0,-999.0,62,-99.99,,,0.00,weatherlink.com 1.10,2013-03-29 04:04:00,
2013-03-28 23:19:00,31.7,21.0,30.28,East,98,0.0,-999.0,64,-99.99,,,0.00,weatherlink.com 1.10,2013-03-29 04:19:00,
2013-03-28 23:30:00,31.0,21.0,30.28,East,90,0.0,0.0,66,0.00,,SKC,0.00,VWS V14.01,2013-03-29 04:30:00,
2013-03-28 23:34:00,30.7,21.0,30.28,East,98,0.0,-999.0,66,-99.99,,,0.00,weatherlink.com 1.10,2013-03-29 04:34:00,
2013-03-28 23:49:00,29.7,20.0,30.28,East,98,0.0,-999.0,68,-99.99,,,0.00,weatherlink.com 1.10,2013-03-29 04:49:00,